Torna al catalogo

CZ-6A DEB

AttivoSSO
NORAD 54953·DEBRIS·🇨🇳 China

Lanciato Nov 11, 2022 da Taiyuan Satellite Launch Center

Loading…

Prossimi Passaggi (prossime 24 ore)

TLE

AggiornatoSource: Space-Track

Epoca: Sep 14, 2026, 14:24 UTC

1 54953U 22151SS  26257.60007972  .00002466  00000-0  55230-3 0  9996
2 54953  98.5398 305.2047 0078494   3.4554 356.7168 14.55718334202656

Traccia CZ-6A DEB in tempo reale con AllMySat

Download on the App Store